N3UC Weather Reports


time (UTC)temp
F
wind
direction
speed
knots
gust
knots
rain 1hr
in
rain 24hr
in
rain mn
in
humidity
%
barometer
mb
20260507180515 64 68 0.9 3.5 0.00 0.08 0.05 50 1011.0
20260507175516 64 68 1.7 7.8 0.00 0.08 0.05 55 1011.3
20260507174516 63 0.0 3.5 0.00 0.08 0.05 54 1011.2
20260507173516 62 225 0.9 4.3 0.00 0.08 0.05 48 1011.4
20260507172516 62 0.0 2.6 0.00 0.08 0.05 51 1011.6
20260507171515 62 0.0 0.9 0.00 0.08 0.05 54 1011.9
20260507170515 61 0.0 4.3 0.00 0.08 0.05 54 1012.2
20260507165536 60 0.0 3.5 0.00 0.08 0.05 52 1012.5
20260507164515 60 0.0 0.0 0.00 0.08 0.05 53 1012.5
20260507163515 59 0.0 0.0 0.00 0.08 0.05 56 1012.8
20260507162515 59 0.0 0.0 0.00 0.08 0.05 57 1012.8
20260507161516 58 68 0.9 4.3 0.00 0.08 0.05 55 1012.9
20260507160516 58 0.0 0.0 0.00 0.08 0.05 55 1013.1
20260507155516 57 68 1.7 7.0 0.00 0.08 0.05 57 1013.2
20260507154516 56 0.0 0.0 0.00 0.08 0.05 56 1013.1
20260507153515 56 68 0.9 3.5 0.00 0.08 0.05 58 1013.2
20260507152515 56 68 0.9 1.7 0.00 0.08 0.05 58 1013.3
20260507151515 56 0.0 3.5 0.00 0.08 0.05 58 1013.5
20260507150520 55 0.0 0.0 0.00 0.08 0.05 58 1013.6
20260507145515 55 45 2.6 7.8 0.00 0.08 0.05 58 1013.7
20260507144515 54 0.0 0.0 0.00 0.09 0.05 59 1013.9
20260507143515 54 0.0 0.0 0.00 0.09 0.05 59 1013.9
20260507142515 53 0.0 0.0 0.00 0.10 0.05 59 1014.0
20260507141515 53 0.0 0.0 0.00 0.11 0.05 55 1013.9
20260507140515 53 0.0 0.0 0.00 0.12 0.05 57 1014.2
20260507135515 52 0.0 0.0 0.00 0.13 0.05 54 1014.2
20260507134515 53 0.0 1.7 0.00 0.13 0.05 38 1014.3
20260507133515 52 0.0 0.0 0.00 0.14 0.05 51 1014.5
20260507132515 52 0.0 0.0 0.00 0.15 0.05 56 1014.5
20260507131515 52 0.0 0.0 0.00 0.16 0.05 28 1014.3
20260507130515 52 0.0 0.0 0.00 0.18 0.05 48 1014.3
20260507125535 52 0.0 0.0 0.00 0.20 0.05 43 1014.3
20260507124515 52 0.0 0.0 0.00 0.24 0.05 14 1014.3
20260507123515 52 0.0 0.0 0.00 0.24 0.05 17 1014.2
20260507122515 52 0.0 0.0 0.00 0.24 0.05 26 1014.4
20260507121515 52 0.0 0.0 0.00 0.24 0.05 10 1014.2
20260507120515 52 0.0 0.0 0.00 0.25 0.05 13 1014.2
20260507115555 52 0.0 0.0 0.00 0.25 0.05 17 1014.2
20260507114515 52 0.0 0.0 0.00 0.26 0.05 32 1014.2
20260507113515 52 0.0 0.0 0.00 0.28 0.05 21 1013.9
20260507112515 52 0.0 0.0 0.00 0.29 0.05 17 1013.8
20260507111515 51 0.0 0.0 0.00 0.29 0.05 6 1013.6
20260507110535 51 0.0 0.0 0.00 0.29 0.05 1 1013.6
20260507105515 51 0.0 0.0 0.00 0.29 0.05 1 1013.6
20260507104515 51 0.0 0.0 0.00 0.29 0.05 1 1013.6
20260507103535 51 0.0 0.0 0.00 0.29 0.05 1 1013.4
20260507102535 51 0.0 0.0 0.00 0.29 0.05 1 1013.4
20260507101515 51 0.0 0.0 0.00 0.29 0.05 1 1013.3
20260507100515 51 0.0 0.0 0.00 0.29 0.05 1 1013.3
20260507095535 51 0.0 0.0 0.00 0.29 0.05 1 1013.2
20260507094515 52 0.0 0.0 0.00 0.29 0.05 1 1013.1
20260507093515 52 0.0 0.0 0.00 0.29 0.05 1 1013.1
20260507092515 52 0.0 0.0 0.00 0.29 0.05 1 1013.0
20260507091515 52 0.0 0.0 0.00 0.29 0.05 8 1012.7
20260507090515 51 0.0 0.0 0.00 0.29 0.05 1 1012.6
20260507085515 52 0.0 0.0 0.00 0.29 0.05 1 1012.8
20260507084515 52 0.0 0.0 0.00 0.29 0.05 1 1012.9
20260507083514 52 0.0 0.0 0.00 0.29 0.05 1 1012.8
20260507082515 52 0.0 0.0 0.00 0.29 0.05 1 1012.8
20260507081515 52 0.0 0.0 0.00 0.29 0.05 1 1012.8
20260507080514 52 0.0 0.0 0.00 0.29 0.05 1 1012.8
20260507080152 52 0.0 0.0 0.00 0.29 0.05 1 1012.6
20260507075516 52 0.0 0.0 0.00 0.29 0.05 1 1012.5
20260507074516 53 90 0.9 8.7 0.00 0.29 0.05 2 1012.0
20260507073515 52 0.0 0.0 0.00 0.29 0.05 1 1012.0
20260507072515 52 45 0.9 5.2 0.00 0.29 0.05 1 1012.1
20260507071515 52 90 0.9 2.6 0.00 0.29 0.05 1 1011.9
20260507070536 52 0.0 0.0 0.00 0.29 0.05 1 1012.1
20260507065515 52 248 0.9 4.3 0.00 0.29 0.05 1 1012.1
20260507064516 52 0.0 3.5 0.00 0.29 0.05 1 1011.9
20260507063515 53 0.0 2.6 0.00 0.29 0.05 1 1012.1
20260507062515 53 0.0 3.5 0.00 0.29 0.05 1 1012.3
20260507061515 53 0.0 2.6 0.01 0.29 0.05 1 1012.4
20260507060515 53 0.0 2.6 0.01 0.29 0.05 1 1012.2
20260507055515 53 0.0 0.0 0.01 0.29 0.05 1 1012.1
20260507054515 53 0.0 0.0 0.01 0.29 0.05 1 1012.1
20260507053515 54 0.0 2.6 0.02 0.29 0.05 1 1012.3
20260507052515 54 0.0 2.6 0.02 0.29 0.05 1 1012.1
20260507051516 54 0.0 0.0 0.01 0.28 0.04 1 1012.2
20260507050515 55 0.0 7.0 0.04 0.28 0.04 1 1012.2
20260507045515 55 90 0.9 3.5 0.04 0.28 0.04 1 1011.6
20260507044515 56 0.0 1.7 0.04 0.28 0.04 1 1012.2
20260507043515 57 0.0 0.0 0.03 0.27 0.03 1 1012.4
20260507042515 57 0.0 0.0 0.03 0.27 0.03 1 1011.6
20260507041515 58 90 0.9 2.6 0.03 0.27 0.03 1 1012.3
20260507040516 58 0.0 0.0 0.00 0.24 0.00 1 1012.4
20260507040015 59 0.0 3.5 0.00 0.24 0.24 1 1011.9
20260507035015 59 0.0 0.0 0.00 0.24 0.24 1 1012.1
20260507034015 60 0.0 0.0 0.00 0.24 0.24 6 1011.5
20260507033015 59 68 0.9 4.3 0.00 0.24 0.24 4 1011.5
20260507032015 59 0.0 0.0 0.00 0.24 0.24 1 1011.5
20260507031016 59 0.0 0.0 0.00 0.24 0.24 1 1011.5
20260507030016 59 0.0 0.0 0.00 0.24 0.24 1 1011.8
20260507025016 60 0.0 2.6 0.00 0.24 0.24 1 1011.1
20260507024015 60 0.0 4.3 0.00 0.24 0.24 1 1010.8
20260507023015 60 23 0.9 5.2 0.00 0.24 0.24 1 1010.8
20260507022015 60 90 0.9 9.6 0.00 0.24 0.24 1 1010.9
20260507021015 61 0.0 0.0 0.00 0.24 0.24 1 1011.0
20260507020035 61 0.0 3.5 0.00 0.24 0.24 1 1010.7
20260507015015 61 0.0 0.0 0.00 0.24 0.24 1 1010.7
20260507014015 62 0.0 0.9 0.00 0.24 0.24 1 1010.6
20260507013035 62 0.0 1.7 0.00 0.24 0.24 1 1010.6
20260507012035 63 0.0 0.9 0.00 0.24 0.24 1 1010.6
20260507011015 64 0.0 0.0 0.01 0.24 0.24 1 1011.1
20260507010015 64 0.0 0.0 0.01 0.24 0.24 1 1010.9
20260507005015 64 0.0 0.0 0.01 0.24 0.24 1 1010.8
20260507004015 65 0.0 1.7 0.02 0.24 0.24 1 1010.7
20260507003015 65 0.0 0.0 0.02 0.24 0.24 1 1010.5
20260507002055 65 0.0 0.0 0.03 0.24 0.24 1 1010.6
20260507001035 65 0.0 0.0 0.02 0.23 0.23 1 1010.5
20260507000015 65 0.0 0.0 0.02 0.23 0.23 1 1010.0
20260506235015 65 0.0 0.0 0.02 0.23 0.23 1 1010.1
20260506234015 65 0.0 0.0 0.01 0.22 0.22 1 1010.1
20260506233015 66 0.0 0.0 0.01 0.22 0.22 1 1009.9
20260506232015 67 0.0 0.0 0.00 0.21 0.21 1 1009.6
20260506231015 68 0.0 0.0 0.00 0.21 0.21 8 1009.6
20260506230035 68 0.0 0.0 0.00 0.21 0.21 16 1009.4
20260506225015 69 0.0 0.0 0.00 0.21 0.21 16 1009.4
20260506224015 69 0.0 0.0 0.00 0.21 0.21 21 1009.3
20260506223015 69 0.0 3.5 0.00 0.21 0.21 20 1009.3
20260506222035 69 0.0 4.3 0.00 0.21 0.21 24 1009.3
20260506221035 69 0.0 5.2 0.00 0.21 0.21 21 1009.2
20260506220015 69 225 0.9 4.3 0.00 0.21 0.21 27 1009.2
20260506215035 69 0.0 5.2 0.00 0.21 0.21 28 1009.2
20260506214015 69 0.0 2.6 0.00 0.21 0.21 27 1009.2
20260506213015 69 225 0.9 7.8 0.00 0.21 0.21 26 1009.3
20260506212015 69 0.0 0.0 0.00 0.21 0.21 23 1009.2
20260506211015 69 203 1.7 7.0 0.00 0.21 0.21 27 1009.1
20260506210020 69 0.0 3.5 0.00 0.21 0.21 25 1009.1
20260506205015 70 0.0 5.2 0.00 0.21 0.21 25 1009.1
20260506204035 70 180 0.9 5.2 0.00 0.21 0.21 25 1008.9
20260506203015 69 203 0.9 4.3 0.00 0.21 0.21 25 1008.6
20260506202015 69 248 0.9 6.1 0.00 0.21 0.21 17 1008.7
20260506201015 69 0.0 1.7 0.00 0.21 0.21 15 1008.9
20260506200015 69 0.0 3.5 0.00 0.21 0.21 16 1008.8
20260506195015 68 0.0 2.6 0.00 0.21 0.21 20 1009.0
20260506194015 68 225 0.9 4.3 0.00 0.21 0.21 16 1009.0
20260506193015 68 225 0.9 4.3 0.00 0.21 0.21 16 1009.0
20260506192015 68 180 1.7 13.9 0.00 0.21 0.21 10 1009.2
20260506191015 67 225 0.9 9.6 0.00 0.21 0.21 17 1009.2
20260506190015 67 203 0.9 7.0 0.00 0.21 0.21 13 1009.4
20260506185015 66 158 0.9 7.0 0.00 0.21 0.21 5 1009.5
20260506184035 65 0.0 3.5 0.00 0.21 0.21 1 1009.4
20260506183015 65 0.0 2.6 0.00 0.21 0.21 1 1009.6
20260506182015 64 0.0 4.3 0.00 0.21 0.21 1 1009.7